| time (UTC) | temp F | wind direction | speed knots | gust knots | rain 1hr in | rain 24hr in | rain mn in | humidity % | barometer mb |
| 20260505110454 | 56 | 194 | 7.0 | 17.4 | 0.00 | 0.00 | 0.00 | 80 | 1011.8 |
| 20260505101954 | 54 | 202 | 6.1 | 15.6 | 0.00 | 0.00 | 0.00 | 83 | 1011.9 |
| 20260505101454 | 53 | 197 | 4.3 | 13.0 | 0.00 | 0.00 | 0.00 | 84 | 1011.7 |
| 20260505100954 | 53 | 191 | 5.2 | 14.8 | 0.00 | 0.00 | 0.00 | 85 | 1011.6 |
| 20260505100454 | 53 | 206 | 7.0 | 14.8 | 0.00 | 0.00 | 0.00 | 85 | 1011.8 |
| 20260505095954 | 52 | 207 | 6.1 | 15.6 | 0.00 | 0.00 | 0.00 | 86 | 1011.7 |
| 20260505095454 | 52 | 200 | 6.1 | 13.9 | 0.00 | 0.00 | 0.00 | 86 | 1011.7 |
| 20260505094954 | 52 | 193 | 7.0 | 14.8 | 0.00 | 0.00 | 0.00 | 86 | 1011.8 |
| 20260505094454 | 52 | 207 | 5.2 | 13.0 | 0.00 | 0.00 | 0.00 | 86 | 1011.8 |
| 20260505093954 | 51 | 194 | 7.0 | 13.9 | 0.00 | 0.00 | 0.00 | 86 | 1011.8 |
| 20260505093454 | 51 | 191 | 4.3 | 11.3 | 0.00 | 0.00 | 0.00 | 86 | 1011.8 |
| 20260505092954 | 51 | 188 | 6.1 | 15.6 | 0.00 | 0.00 | 0.00 | 86 | 1011.6 |
| 20260505092454 | 51 | 196 | 5.2 | 10.4 | 0.00 | 0.00 | 0.00 | 86 | 1011.7 |
| 20260505091954 | 51 | 188 | 5.2 | 10.4 | 0.00 | 0.00 | 0.00 | 86 | 1011.6 |
| 20260505091454 | 51 | 203 | 5.2 | 13.9 | 0.00 | 0.00 | 0.00 | 86 | 1011.7 |
| 20260505090954 | 51 | 201 | 7.0 | 10.4 | 0.00 | 0.00 | 0.00 | 86 | 1011.7 |
| 20260505090454 | 51 | 203 | 4.3 | 10.4 | 0.00 | 0.00 | 0.00 | 86 | 1011.6 |
| 20260505085954 | 51 | 195 | 6.1 | 10.4 | 0.00 | 0.00 | 0.00 | 86 | 1011.6 |
| 20260505085454 | 51 | 193 | 5.2 | 11.3 | 0.00 | 0.00 | 0.00 | 85 | 1011.7 |
| 20260505084954 | 51 | 196 | 6.1 | 8.7 | 0.00 | 0.00 | 0.00 | 85 | 1011.7 |
| 20260505084454 | 52 | 206 | 5.2 | 9.6 | 0.00 | 0.00 | 0.00 | 85 | 1011.7 |
| 20260505083954 | 52 | 205 | 4.3 | 10.4 | 0.00 | 0.00 | 0.00 | 85 | 1011.6 |
| 20260505083454 | 52 | 196 | 5.2 | 12.2 | 0.00 | 0.00 | 0.00 | 84 | 1011.7 |
| 20260505082954 | 52 | 206 | 4.3 | 10.4 | 0.00 | 0.00 | 0.00 | 84 | 1011.7 |
| 20260505082454 | 52 | 200 | 6.1 | 13.0 | 0.00 | 0.00 | 0.00 | 84 | 1011.7 |
| 20260505081954 | 52 | 207 | 7.0 | 13.9 | 0.00 | 0.00 | 0.00 | 84 | 1011.8 |
| 20260505081454 | 52 | 208 | 4.3 | 12.2 | 0.00 | 0.00 | 0.00 | 83 | 1011.9 |
| 20260505080954 | 52 | 209 | 7.8 | 13.0 | 0.00 | 0.00 | 0.00 | 83 | 1011.9 |
| 20260505080454 | 53 | 209 | 7.0 | 12.2 | 0.00 | 0.00 | 0.00 | 83 | 1011.9 |
| 20260505075954 | 53 | 217 | 7.8 | 13.0 | 0.00 | 0.00 | 0.00 | 83 | 1011.9 |
| 20260505075454 | 53 | 212 | 9.6 | 13.9 | 0.00 | 0.00 | 0.00 | 83 | 1011.9 |
| 20260505074954 | 53 | 211 | 6.1 | 19.1 | 0.00 | 0.00 | 0.00 | 83 | 1012.0 |
| 20260505074454 | 53 | 219 | 10.4 | 18.2 | 0.00 | 0.00 | 0.00 | 83 | 1012.0 |
| 20260505073954 | 53 | 218 | 10.4 | 19.1 | 0.00 | 0.00 | 0.00 | 83 | 1012.1 |
| 20260505073454 | 53 | 214 | 6.1 | 15.6 | 0.00 | 0.00 | 0.00 | 83 | 1012.0 |
| 20260505072954 | 53 | 217 | 8.7 | 17.4 | 0.00 | 0.00 | 0.00 | 83 | 1012.0 |
| 20260505072454 | 53 | 214 | 8.7 | 15.6 | 0.00 | 0.00 | 0.00 | 83 | 1011.9 |
| 20260505071954 | 53 | 222 | 8.7 | 16.5 | 0.00 | 0.00 | 0.00 | 83 | 1011.9 |
| 20260505071454 | 53 | 224 | 7.8 | 20.0 | 0.00 | 0.00 | 0.00 | 83 | 1011.9 |
| 20260505070954 | 53 | 217 | 8.7 | 21.7 | 0.00 | 0.00 | 0.00 | 83 | 1011.9 |
| 20260505070454 | 53 | 215 | 8.7 | 15.6 | 0.00 | 0.00 | 0.00 | 83 | 1011.9 |
| 20260505065954 | 53 | 212 | 8.7 | 17.4 | 0.00 | 0.00 | 0.00 | 83 | 1011.9 |
| 20260505065454 | 53 | 210 | 7.8 | 15.6 | 0.00 | 0.00 | 0.00 | 82 | 1011.9 |
| 20260505064954 | 53 | 220 | 9.6 | 17.4 | 0.00 | 0.00 | 0.00 | 82 | 1011.8 |
| 20260505064454 | 53 | 214 | 9.6 | 17.4 | 0.00 | 0.00 | 0.00 | 82 | 1011.7 |
| 20260505063954 | 53 | 217 | 8.7 | 21.7 | 0.00 | 0.00 | 0.00 | 82 | 1011.8 |
| 20260505063454 | 53 | 217 | 10.4 | 22.6 | 0.00 | 0.00 | 0.00 | 82 | 1011.8 |
| 20260505062955 | 53 | 220 | 13.0 | 20.0 | 0.00 | 0.00 | 0.00 | 82 | 1011.7 |
| 20260505062507 | 53 | 220 | 10.4 | 22.6 | 0.00 | 0.00 | 0.00 | 82 | 1011.7 |
| 20260505061954 | 53 | 220 | 11.3 | 21.7 | 0.00 | 0.00 | 0.00 | 82 | 1011.8 |
| 20260505061454 | 53 | 224 | 8.7 | 18.2 | 0.00 | 0.00 | 0.00 | 82 | 1011.8 |
| 20260505060954 | 53 | 221 | 7.0 | 17.4 | 0.00 | 0.00 | 0.00 | 82 | 1011.8 |
| 20260505060454 | 53 | 221 | 9.6 | 14.8 | 0.00 | 0.00 | 0.00 | 83 | 1011.9 |
| 20260505055954 | 53 | 219 | 8.7 | 13.0 | 0.00 | 0.00 | 0.00 | 83 | 1011.9 |
| 20260505055454 | 53 | 226 | 8.7 | 16.5 | 0.00 | 0.00 | 0.00 | 83 | 1011.9 |
| 20260505054954 | 53 | 212 | 7.8 | 14.8 | 0.00 | 0.00 | 0.00 | 83 | 1011.9 |
| 20260505054454 | 52 | 215 | 7.0 | 13.9 | 0.00 | 0.00 | 0.00 | 84 | 1011.9 |
| 20260505053954 | 52 | 215 | 7.8 | 13.9 | 0.00 | 0.00 | 0.00 | 84 | 1011.9 |
| 20260505053454 | 52 | 218 | 8.7 | 13.9 | 0.00 | 0.00 | 0.00 | 84 | 1012.0 |
| 20260505052954 | 52 | 214 | 7.0 | 15.6 | 0.00 | 0.00 | 0.00 | 84 | 1012.0 |
| 20260505052453 | 52 | 215 | 8.7 | 16.5 | 0.00 | 0.00 | 0.00 | 84 | 1011.9 |
| 20260505051954 | 52 | 220 | 7.8 | 13.0 | 0.00 | 0.00 | 0.00 | 84 | 1011.9 |
| 20260505051454 | 52 | 204 | 6.1 | 12.2 | 0.00 | 0.00 | 0.00 | 84 | 1011.9 |
| 20260505050954 | 52 | 214 | 7.0 | 14.8 | 0.00 | 0.00 | 0.00 | 84 | 1012.0 |
| 20260505050453 | 52 | 211 | 6.1 | 12.2 | 0.00 | 0.00 | 0.00 | 83 | 1012.0 |
| 20260505041453 | 52 | 198 | 6.1 | 13.0 | 0.00 | 0.00 | 0.00 | 81 | 1012.2 |
| 20260505040953 | 52 | 202 | 7.0 | 13.9 | 0.00 | 0.00 | 0.00 | 80 | 1012.3 |
| 20260505040453 | 52 | 210 | 8.7 | 16.5 | 0.00 | 0.00 | 0.00 | 80 | 1012.3 |
| 20260505035953 | 52 | 203 | 6.1 | 13.0 | 0.00 | 0.00 | 0.00 | 80 | 1012.4 |
| 20260505035454 | 52 | 213 | 7.8 | 13.0 | 0.00 | 0.00 | 0.00 | 80 | 1012.4 |
| 20260505034953 | 52 | 208 | 7.8 | 15.6 | 0.00 | 0.00 | 0.00 | 80 | 1012.4 |
| 20260505034454 | 52 | 206 | 7.0 | 12.2 | 0.00 | 0.00 | 0.00 | 80 | 1012.5 |
| 20260505033953 | 52 | 206 | 7.0 | 13.0 | 0.00 | 0.00 | 0.00 | 79 | 1012.5 |
| 20260505033454 | 52 | 210 | 6.1 | 13.0 | 0.00 | 0.00 | 0.00 | 79 | 1012.5 |
| 20260505032953 | 52 | 207 | 4.3 | 11.3 | 0.00 | 0.00 | 0.00 | 78 | 1012.4 |
| 20260505032453 | 52 | 204 | 5.2 | 16.5 | 0.00 | 0.00 | 0.00 | 78 | 1012.4 |
| 20260505031953 | 52 | 203 | 5.2 | 11.3 | 0.00 | 0.00 | 0.00 | 78 | 1012.3 |
| 20260505031453 | 53 | 199 | 4.3 | 11.3 | 0.00 | 0.00 | 0.00 | 77 | 1012.3 |
| 20260505030953 | 53 | 206 | 6.1 | 12.2 | 0.00 | 0.00 | 0.00 | 77 | 1012.5 |
| 20260505030353 | 53 | 213 | 7.0 | 15.6 | 0.00 | 0.00 | 0.00 | 76 | 1012.4 |
| 20260505025853 | 53 | 218 | 7.8 | 16.5 | 0.00 | 0.00 | 0.00 | 76 | 1012.4 |
| 20260505025353 | 53 | 207 | 7.8 | 15.6 | 0.00 | 0.00 | 0.00 | 76 | 1012.5 |
| 20260505024854 | 53 | 215 | 7.8 | 14.8 | 0.00 | 0.00 | 0.00 | 76 | 1012.5 |
| 20260505024353 | 53 | 209 | 7.0 | 14.8 | 0.00 | 0.00 | 0.00 | 76 | 1012.5 |
| 20260505023853 | 53 | 213 | 8.7 | 15.6 | 0.00 | 0.00 | 0.00 | 75 | 1012.5 |
| 20260505023353 | 53 | 207 | 8.7 | 16.5 | 0.00 | 0.00 | 0.00 | 75 | 1012.4 |
| 20260505022853 | 53 | 210 | 8.7 | 15.6 | 0.00 | 0.00 | 0.00 | 75 | 1012.4 |
| 20260505022353 | 53 | 216 | 10.4 | 18.2 | 0.00 | 0.00 | 0.00 | 75 | 1012.5 |
| 20260505021853 | 53 | 205 | 9.6 | 20.0 | 0.00 | 0.00 | 0.00 | 75 | 1012.5 |
| 20260505021353 | 54 | 213 | 8.7 | 17.4 | 0.00 | 0.00 | 0.00 | 75 | 1012.5 |
| 20260505020853 | 54 | 208 | 6.1 | 20.0 | 0.00 | 0.00 | 0.00 | 74 | 1012.4 |
| 20260505020353 | 54 | 219 | 10.4 | 20.9 | 0.00 | 0.00 | 0.00 | 74 | 1012.4 |
| 20260505015853 | 54 | 209 | 9.6 | 20.9 | 0.00 | 0.00 | 0.00 | 74 | 1012.3 |
| 20260505015353 | 54 | 215 | 12.2 | 23.5 | 0.00 | 0.00 | 0.00 | 74 | 1012.2 |
| 20260505014853 | 54 | 218 | 9.6 | 20.9 | 0.00 | 0.00 | 0.00 | 74 | 1012.2 |
| 20260505014353 | 54 | 215 | 7.8 | 18.2 | 0.00 | 0.00 | 0.00 | 73 | 1012.2 |
| 20260505013853 | 54 | 220 | 11.3 | 18.2 | 0.00 | 0.00 | 0.00 | 73 | 1012.1 |
| 20260505013353 | 54 | 220 | 13.0 | 21.7 | 0.00 | 0.00 | 0.00 | 72 | 1012.1 |
| 20260505012853 | 54 | 218 | 12.2 | 23.5 | 0.00 | 0.00 | 0.00 | 72 | 1012.0 |
| 20260505012353 | 54 | 214 | 11.3 | 24.3 | 0.00 | 0.00 | 0.00 | 71 | 1011.8 |
| 20260505011853 | 54 | 215 | 10.4 | 21.7 | 0.00 | 0.00 | 0.00 | 70 | 1011.7 |
| 20260505011353 | 54 | 219 | 13.0 | 25.2 | 0.00 | 0.00 | 0.00 | 70 | 1011.6 |
| 20260505010853 | 54 | 219 | 11.3 | 19.1 | 0.00 | 0.00 | 0.00 | 69 | 1011.5 |
| 20260505010353 | 54 | 220 | 8.7 | 20.0 | 0.00 | 0.00 | 0.00 | 68 | 1011.6 |
| 20260505005853 | 54 | 216 | 12.2 | 22.6 | 0.00 | 0.00 | 0.00 | 68 | 1011.5 |
| 20260505005353 | 54 | 219 | 13.0 | 23.5 | 0.00 | 0.00 | 0.00 | 68 | 1011.4 |
| 20260505004853 | 54 | 218 | 8.7 | 24.3 | 0.00 | 0.00 | 0.00 | 67 | 1011.4 |
| 20260505004353 | 54 | 211 | 7.8 | 24.3 | 0.00 | 0.00 | 0.00 | 67 | 1011.3 |
| 20260505003853 | 54 | 212 | 11.3 | 25.2 | 0.00 | 0.00 | 0.00 | 66 | 1011.3 |
| 20260505003353 | 54 | 215 | 11.3 | 22.6 | 0.00 | 0.00 | 0.00 | 65 | 1011.2 |
| 20260505002853 | 55 | 213 | 10.4 | 21.7 | 0.00 | 0.00 | 0.00 | 63 | 1011.1 |
| 20260505002353 | 55 | 211 | 12.2 | 25.2 | 0.00 | 0.00 | 0.00 | 62 | 1011.0 |
| 20260505001853 | 55 | 215 | 11.3 | 25.2 | 0.00 | 0.00 | 0.00 | 62 | 1010.8 |
| 20260505001353 | 55 | 220 | 11.3 | 23.5 | 0.00 | 0.00 | 0.00 | 61 | 1010.8 |
| 20260505000853 | 55 | 213 | 10.4 | 20.9 | 0.00 | 0.00 | 0.00 | 61 | 1010.7 |
| 20260505000353 | 55 | 226 | 12.2 | 25.2 | 0.00 | 0.00 | 0.00 | 60 | 1010.7 |
| 20260504235853 | 55 | 218 | 13.0 | 22.6 | 0.00 | 0.00 | 0.00 | 60 | 1010.6 |
| 20260504235353 | 55 | 219 | 11.3 | 23.5 | 0.00 | 0.00 | 0.00 | 60 | 1010.5 |
| 20260504234853 | 55 | 220 | 11.3 | 21.7 | 0.00 | 0.00 | 0.00 | 59 | 1010.5 |
| 20260504234353 | 55 | 221 | 13.9 | 26.1 | 0.00 | 0.00 | 0.00 | 59 | 1010.5 |
| 20260504233853 | 56 | 217 | 10.4 | 22.6 | 0.00 | 0.00 | 0.00 | 59 | 1010.4 |
| 20260504233353 | 56 | 216 | 11.3 | 20.9 | 0.00 | 0.00 | 0.00 | 58 | 1010.4 |
| 20260504232853 | 56 | 217 | 13.0 | 30.4 | 0.00 | 0.00 | 0.00 | 57 | 1010.4 |
| 20260504232353 | 57 | 218 | 9.6 | 17.4 | 0.00 | 0.00 | 0.00 | 57 | 1010.3 |
| 20260504231853 | 57 | 222 | 13.0 | 24.3 | 0.00 | 0.00 | 0.00 | 57 | 1010.2 |
| 20260504231353 | 57 | 214 | 10.4 | 27.8 | 0.00 | 0.00 | 0.00 | 57 | 1010.2 |
| 20260504230853 | 57 | 215 | 13.0 | 22.6 | 0.00 | 0.00 | 0.00 | 56 | 1010.1 |
| 20260504230353 | 57 | 218 | 13.0 | 24.3 | 0.00 | 0.00 | 0.00 | 57 | 1010.1 |
| 20260504225853 | 58 | 218 | 11.3 | 23.5 | 0.00 | 0.00 | 0.00 | 57 | 1010.0 |
| 20260504225353 | 58 | 213 | 12.2 | 25.2 | 0.00 | 0.00 | 0.00 | 57 | 1010.0 |
| 20260504224853 | 58 | 212 | 12.2 | 32.2 | 0.00 | 0.00 | 0.00 | 56 | 1010.0 |
| 20260504224353 | 58 | 210 | 10.4 | 26.1 | 0.00 | 0.00 | 0.00 | 56 | 1010.0 |
| 20260504223853 | 58 | 215 | 13.0 | 24.3 | 0.00 | 0.00 | 0.00 | 55 | 1010.0 |
| 20260504223352 | 59 | 215 | 13.0 | 25.2 | 0.00 | 0.00 | 0.00 | 55 | 1009.9 |
| 20260504222853 | 59 | 220 | 13.0 | 23.5 | 0.00 | 0.00 | 0.00 | 54 | 1009.9 |
| 20260504222353 | 59 | 213 | 12.2 | 23.5 | 0.00 | 0.00 | 0.00 | 55 | 1010.0 |
| 20260504221853 | 60 | 206 | 10.4 | 24.3 | 0.00 | 0.00 | 0.00 | 54 | 1010.1 |
| 20260504221353 | 60 | 203 | 8.7 | 22.6 | 0.00 | 0.00 | 0.00 | 54 | 1010.1 |
| 20260504220852 | 60 | 210 | 14.8 | 25.2 | 0.00 | 0.00 | 0.00 | 54 | 1009.8 |
| 20260504220353 | 60 | 212 | 12.2 | 26.1 | 0.00 | 0.00 | 0.00 | 53 | 1009.8 |
| 20260504215853 | 61 | 209 | 10.4 | 21.7 | 0.00 | 0.00 | 0.00 | 53 | 1010.0 |
| 20260504215353 | 61 | 214 | 12.2 | 25.2 | 0.00 | 0.00 | 0.00 | 51 | 1010.1 |
| 20260504214853 | 61 | 222 | 9.6 | 26.9 | 0.00 | 0.00 | 0.00 | 51 | 1010.1 |
| 20260504214352 | 61 | 214 | 13.0 | 26.1 | 0.00 | 0.00 | 0.00 | 51 | 1010.1 |
| 20260504213852 | 61 | 214 | 13.9 | 25.2 | 0.00 | 0.00 | 0.00 | 51 | 1010.0 |
| 20260504213353 | 61 | 217 | 13.9 | 26.1 | 0.00 | 0.00 | 0.00 | 51 | 1009.9 |
| 20260504212852 | 62 | 227 | 11.3 | 24.3 | 0.00 | 0.00 | 0.00 | 50 | 1010.0 |
| 20260504212353 | 62 | 207 | 10.4 | 25.2 | 0.00 | 0.00 | 0.00 | 50 | 1010.1 |
| 20260504211852 | 62 | 212 | 12.2 | 26.9 | 0.00 | 0.00 | 0.00 | 50 | 1010.2 |
| 20260504211353 | 62 | 216 | 14.8 | 24.3 | 0.00 | 0.00 | 0.00 | 49 | 1010.0 |
| 20260504210853 | 62 | 220 | 17.4 | 27.8 | 0.00 | 0.00 | 0.00 | 48 | 1009.9 |
| 20260504210353 | 62 | 216 | 13.0 | 25.2 | 0.00 | 0.00 | 0.00 | 48 | 1009.9 |
| 20260504205853 | 63 | 221 | 13.0 | 27.8 | 0.00 | 0.00 | 0.00 | 48 | 1009.9 |
| 20260504205352 | 62 | 221 | 17.4 | 29.5 | 0.00 | 0.00 | 0.00 | 47 | 1009.8 |
| 20260504204853 | 63 | 212 | 13.0 | 27.8 | 0.00 | 0.00 | 0.00 | 47 | 1009.7 |
| 20260504204352 | 64 | 220 | 13.9 | 26.9 | 0.00 | 0.00 | 0.00 | 44 | 1009.8 |
| 20260504203853 | 64 | 211 | 12.2 | 26.9 | 0.00 | 0.00 | 0.00 | 45 | 1009.7 |
| 20260504203352 | 64 | 216 | 14.8 | 31.3 | 0.00 | 0.00 | 0.00 | 41 | 1009.5 |
| 20260504202852 | 65 | 219 | 10.4 | 22.6 | 0.00 | 0.00 | 0.00 | 42 | 1009.5 |
| 20260504202410 | 64 | 234 | 13.0 | 36.5 | 0.00 | 0.00 | 0.00 | 40 | 1009.5 |
| 20260504201852 | 63 | 224 | 20.9 | 35.6 | 0.00 | 0.00 | 0.00 | 39 | 1009.4 |
| 20260504201352 | 63 | 235 | 19.1 | 37.4 | 0.00 | 0.00 | 0.00 | 39 | 1009.5 |
| 20260504200852 | 63 | 229 | 20.0 | 35.6 | 0.00 | 0.00 | 0.00 | 40 | 1009.6 |
| 20260504200352 | 64 | 226 | 19.1 | 35.6 | 0.00 | 0.00 | 0.00 | 39 | 1009.4 |
| 20260504195852 | 64 | 228 | 13.0 | 36.5 | 0.00 | 0.00 | 0.00 | 41 | 1009.7 |
| 20260504195352 | 64 | 233 | 20.0 | 35.6 | 0.00 | 0.00 | 0.00 | 38 | 1009.8 |
| 20260504194852 | 64 | 227 | 18.2 | 35.6 | 0.00 | 0.00 | 0.00 | 39 | 1009.7 |
| 20260504194353 | 64 | 235 | 13.9 | 34.8 | 0.00 | 0.00 | 0.00 | 40 | 1009.6 |
| 20260504193852 | 64 | 226 | 18.2 | 40.8 | 0.00 | 0.00 | 0.00 | 39 | 1009.2 |
| 20260504193352 | 64 | 236 | 15.6 | 36.5 | 0.00 | 0.00 | 0.00 | 38 | 1009.6 |
| 20260504192852 | 65 | 236 | 20.0 | 38.2 | 0.00 | 0.00 | 0.00 | 37 | 1009.6 |
| 20260504192352 | 65 | 237 | 18.2 | 30.4 | 0.00 | 0.00 | 0.00 | 38 | 1009.4 |
| 20260504191852 | 65 | 236 | 13.0 | 29.5 | 0.00 | 0.00 | 0.00 | 40 | 1009.7 |
| 20260504191352 | 64 | 239 | 20.0 | 35.6 | 0.00 | 0.00 | 0.00 | 40 | 1009.7 |
| 20260504190852 | 64 | 248 | 17.4 | 39.1 | 0.00 | 0.00 | 0.00 | 42 | 1009.6 |
| 20260504190352 | 64 | 238 | 17.4 | 33.0 | 0.00 | 0.00 | 0.00 | 40 | 1009.8 |
| 20260504185852 | 65 | 232 | 15.6 | 26.9 | 0.00 | 0.00 | 0.00 | 40 | 1010.0 |
| 20260504185352 | 65 | 232 | 17.4 | 31.3 | 0.00 | 0.00 | 0.00 | 40 | 1010.1 |
| 20260504184852 | 64 | 243 | 19.1 | 32.2 | 0.00 | 0.00 | 0.00 | 39 | 1009.9 |
| 20260504184353 | 65 | 236 | 16.5 | 37.4 | 0.00 | 0.00 | 0.00 | 41 | 1009.9 |
| 20260504183852 | 65 | 247 | 13.9 | 32.2 | 0.00 | 0.00 | 0.00 | 41 | 1009.9 |
| 20260504183352 | 64 | 245 | 19.1 | 29.5 | 0.00 | 0.00 | 0.00 | 42 | |
| 20260504182852 | 65 | 234 | 14.8 | 30.4 | 0.00 | 0.00 | 0.00 | 42 | 1009.7 |
| 20260504182352 | 65 | 240 | 13.9 | 31.3 | 0.00 | 0.00 | 0.00 | 43 | 1009.7 |
| 20260504181852 | 65 | 228 | 14.8 | 28.7 | 0.00 | 0.00 | 0.00 | 43 | 1009.6 |
| 20260504181352 | 65 | 230 | 15.6 | 31.3 | 0.00 | 0.00 | 0.00 | 43 | 1009.7 |
| 20260504180852 | 65 | 231 | 15.6 | 29.5 | 0.00 | 0.00 | 0.00 | 42 | 1009.2 |
| 20260504180352 | 66 | 234 | 14.8 | 31.3 | 0.00 | 0.00 | 0.00 | 41 | 1009.7 |
| 20260504175852 | 65 | 232 | 14.8 | 28.7 | 0.00 | 0.00 | 0.00 | 40 | 1009.8 |
| 20260504175352 | 65 | 230 | 18.2 | 33.0 | 0.00 | 0.00 | 0.00 | 40 | 1009.7 |
| 20260504174852 | 66 | 238 | 13.0 | 30.4 | 0.00 | 0.00 | 0.00 | 39 | 1009.8 |
| 20260504174352 | 65 | 247 | 16.5 | 28.7 | 0.00 | 0.00 | 0.00 | 40 | 1009.6 |
| 20260504173852 | 65 | 239 | 18.2 | 38.2 | 0.00 | 0.00 | 0.00 | 38 | 1009.8 |
| 20260504173352 | 66 | 237 | 18.2 | 30.4 | 0.00 | 0.00 | 0.00 | 38 | 1010.0 |
| 20260504172852 | 65 | 239 | 16.5 | 37.4 | 0.00 | 0.00 | 0.00 | 36 | 1009.8 |
| 20260504172352 | 65 | 238 | 16.5 | 31.3 | 0.00 | 0.00 | 0.00 | 37 | 1009.9 |
| 20260504171852 | 66 | 254 | 16.5 | 26.1 | 0.00 | 0.00 | 0.00 | 43 | 1009.8 |
| 20260504171352 | 64 | 246 | 15.6 | 37.4 | 0.00 | 0.00 | 0.00 | 41 | 1009.7 |
| 20260504170852 | 64 | 245 | 15.6 | 32.2 | 0.00 | 0.00 | 0.00 | 42 | 1009.9 |
| 20260504170352 | 64 | 249 | 17.4 | 36.5 | 0.00 | 0.00 | 0.00 | 39 | 1009.7 |
| 20260504160252 | 64 | 238 | 17.4 | 26.9 | 0.00 | 0.00 | 0.00 | 41 | 1010.3 |
| 20260504150702 | 63 | 252 | 11.3 | 20.9 | 0.00 | 0.00 | 0.00 | 46 | 1010.8 |
| 20260504150152 | 63 | 244 | 9.6 | 22.6 | 0.00 | 0.00 | 0.00 | 47 | 1010.7 |
| 20260504141151 | 61 | 251 | 12.2 | 22.6 | 0.00 | 0.00 | 0.00 | 55 | 1011.1 |
| 20260504140652 | 61 | 248 | 15.6 | 20.9 | 0.00 | 0.00 | 0.00 | 52 | 1011.0 |
| 20260504140151 | 61 | 250 | 12.2 | 21.7 | 0.00 | 0.00 | 0.00 | 53 | 1011.0 |
| 20260504130653 | 58 | 258 | 14.8 | 20.0 | 0.00 | 0.00 | 0.00 | 57 | 1011.4 |
| 20260504130151 | 58 | 249 | 12.2 | 20.9 | 0.00 | 0.00 | 0.00 | 55 | 1011.4 |
| 20260504120151 | 55 | 240 | 10.4 | 16.5 | 0.00 | 0.00 | 0.00 | 61 | 1011.5 |